COSMOS 2251 DEB

基本信息
目录编号:
34793
目录名称:
COSMOS 2251 DEB
国际标识:
1993-036AAW
轨道中心:
EARTH
物体状态:
在轨
发射日期:
1993-06-16 UTC
轨道信息
数据来源: 国际轨道数据
星历时间: 2026-09-10T23:32:11+0800
半长轴: 7139.968km
偏心率: 0.0051621
轨道倾角: 74.001°
近地点辐角: 199.374°
升交点赤经: 107.851°
平近点角: 218.847°
近地点: 724.973km
远地点: 798.689km
周期: 100.070分钟
每日圈数: 14.389921
详细信息
发射场:
PKMTR
轨道高度:
LEO
数据来源:
AOE Integration Group
参考系:
TEME
时间系统:
UTC
历元类型:
SGP4
2D轨道图
3D轨道图
轨道高度分析图
轨道倾角分析图
轨道综合分析图
查看轨道综合分析图